TITAN 3C TRANSTAGE DEB, 1829

Orbit data source: Space-Track

TITAN 3C TRANSTAGE DEB, 1829 is space debris in LEO originally from a launch on Fri, 15 Oct 1965 UTC launched from the Air Force Eastern Test Range (AFETR). Debris objects in space refer to the collection of defunct objects orbiting the Earth. Examples of debris include non-operational satellites, rocket bodies, and fragments generated from explosions, collisions, or faulty payload assembly.

Loading next visibility...
TITAN 3C TRANSTAGE DEB details
Identifier
1829, 1965-082DU
Orbit
LEO
Last TLE update16 hours ago
Origin
Flag of USUSAF SSD (US)
ManufacturerUnknown
MissionSpacecraft
Bus & MotorUnknown
MassUnknown
Launch date (UTC)
1965-10-15 (59 years ago)
Launch vehicleUnknown
Launch site
Air Force Eastern Test Range (AFETR)
Object type
Payload
Rocket body
Debris
Shape & HBRUnknown
Radar Cross SectionSmall (<0.1 m²)

Expand to show TLE details & history

TLE from 16 hours ago
0 TITAN 3C TRANSTAGE DEB
1 01829U 65082DU  25047.34544791  .00005916  00000-0  65469-3 0  9990
2 01829  32.2908  36.5201 0026663 217.7202 142.1582 14.85990720148109
Epoch: 2025-02-16T08:17Z
Definitive object data (Epoch: 2025-02-16T08:17:26.699Z)
Latitude-0.00006°
Longitude125.57892°
Altitude623.859 km
Speed7.541 km/s
True Right ascension02h 26m 04s
True Declination0° 00' 00"
Sunlit
Object was in daylight at TLE epoch
Visualization TLE readout
Latitude-32.13587°
Longitude40.21091°
Altitude607.088 km
Speed7.563 km/s
Apparent Right ascension18h 08m 47s
Apparent Declination-44° 55' 14"
Sunlit
Object is in daylight
Visualization observer readout
Local Sidereal Time02:50:59
Azimuth245.412° WSW
Elevation-53.725°
Doppler factor1
Orbital elements
Apogee altitude632.731 km
Perigee altitude595.444 km
Semi-major axis6,992.225 km
Eccentricity0.0026663
Inclination32.2908°
RAAN36.5201°
Arg. of periapsis217.7202°
True anomaly142.34515°
Mean anomaly142.1582°
Eccentric anomaly142.25172°
Mean motion3.7121 °/min
BSTAR0.00065469
Orbital period96.98 mins
Loading maneuver chart data...

TITAN 3C TRANSTAGE DEB Visibility forecast

Observer location: undefined°, undefined

Span
Click to sort rows by Start time (UTC) header in descending order
Start Az.
Max El. time (UTC)
Max El. Az.
Max El.
End time (UTC)
End Az.
5 mins2025-02-17 03:56:33.750Z206.31° SW2025-02-17 03:58:33.750Z167.636° S23.937°2025-02-17 04:01:33.750Z118.65° SE
6 mins2025-02-17 05:38:33.750Z226.847° WSW2025-02-17 05:40:33.750Z185.257° SSW27.022°2025-02-17 05:44:33.750Z122.728° SE
5 mins2025-02-17 07:20:33.750Z231.279° WSW2025-02-17 07:22:33.750Z199.726° SSW18.299°2025-02-17 07:25:33.750Z155.578° SSE
|